Location: ????????
(55.0097°N, 38.5678°E)
Time: 13:38:22
(UTC+00:00)

NOSS 3-4 (C) - Pass Details

Date: 14 April 2024
Orbit: 806 x 1406 km, 63.4° (Epoch: 16 May)

Event Time Altitude Azimuth Distance (km) Brightness Sun altitude
Exits shadow 00:16:29 26° 233° (SW) 1,633 4.1 -16.3°
Maximum altitude 00:19:52 85° 320° (NW) 901 3.3 -16.0°
Drops below altitude 10° 00:26:13 10° 51° (NE) 2,746 7.3 -15.3°
Sets 00:28:59 0° 52° (NE) 3,789 8.5 -15.0°
